Terug naar catalogus

ATLAS 5 CENTAUR DEB

LostHEO
NORAD 52039·DEBRIS·🇺🇸 United States

Gelanceerd Oct 17, 2018 vanaf Cape Canaveral Space Force Station

Loading…

Volgende Passages (komende 24 uur)

TLE

VerouderdSource: Space-Track

Epoch: Mar 26, 2023, 11:31 UTC

1 52039U 18079GH  23085.48042778 -.00000129  00000-0  00000+0 0  9994
2 52039  12.6090  81.3562 4550855 237.6264  70.2418  2.17886006  8554

Volg ATLAS 5 CENTAUR DEB in realtime met AllMySat

Download on the App Store